Temperature
23 24 22 22 21 21 21 20 20 20 20 20 20 20 20 20 20 20 20 19 19 19 19 19 19 20 20 20 20 20 20 20 20 20 20 20 19 19 18 18 17 17 18
23 24 23 22 21 21 21 20 20 20 20 20 20 21 21 20 20 20 20 20 20 19 19 19 20 20 20 20 20 20 20 20 20 20 20 19 19 19 19 18 17 17 18
24 24 23 22 21 21 21 20 20 20 20 20 20 21 21 21 20 20 20 20 20 20 20 20 20 20 20 20 20 20 20 20 20 19 19 18 19 19 19 19 18 18 18
24 24 23 23 22 21 21 21 20 20 20 20 20 20 20 20 20 20 20 20 20 20 20 20 20 20 20 20 20 20 20 20 19 19 18 18 18 19 19 19 19 19 18
23 24 24 23 22 22 21 21 20 20 20 20 20 20 20 20 20 20 20 20 20 20 20 20 20 20 20 20 20 20 20 20 19 19 19 18 18 18 19 19 19 19 19
23 23 24 23 22 22 21 21 20 20 20 20 20 20 20 20 20 20 20 19 19 19 19 19 19 19 19 19 19 19 20 19 19 19 19 18 18 18 18 18 18 18 18
23 23 23 23 22 22 21 21 21 20 20 20 20 20 20 20 20 20 19 19 19 19 19 19 19 19 19 19 19 19 19 19 19 19 18 18 18 18 18 18 18 18 18
23 23 23 23 22 22 22 21 21 21 20 20 20 20 20 20 19 19 19 19 19 19 19 19 19 19 19 19 19 19 19 19 19 18 18 18 19 18 18 18 18 18 18
23 23 24 23 22 22 22 21 21 21 20 20 20 20 20 20 19 19 19 19 19 19 19 19 19 19 19 19 19 19 19 19 19 19 18 19 19 18 18 18 18 18 18
24 23 23 23 22 22 22 22 21 21 21 20 20 20 20 20 20 19 19 19 19 19 19 19 19 19 19 19 19 19 19 19 19 19 19 19 19 19 18 18 18 18 18
24 23 22 22 22 22 22 21 21 21 21 20 20 20 20 20 19 19 19 19 19 19 19 19 19 19 19 19 19 19 19 19 19 19 19 19 19 19 19 18 18 18 18
24 23 22 22 22 21 21 21 21 21 21 20 20 20 20 19 19 19 19 19 19 19 19 19 19 19 19 19 19 18 18 19 19 19 19 19 19 19 19 19 19 19 19
24 23 22 22 21 21 21 21 20 20 20 20 20 19 19 19 19 19 19 19 19 19 19 19 19 19 19 19 18 18 18 18 18 19 19 19 19 19 19 19 19 19 19
23 23 23 22 21 21 21 21 20 20 20 20 20 19 19 19 19 19 19 19 19 19 19 18 18 19 18 18 18 18 18 19 19 19 19 19 19 19 19 19 19 19 19
23 23 23 22 21 21 21 21 20 20 20 20 20 19 19 19 19 19 19 19 19 19 19 19 18 19 18 18 18 18 19 19 19 19 19 19 19 19 19 19 19 19 19
24 23 23 22 21 21 21 21 21 20 20 20 20 19 19 19 19 19 19 18 18 18 19 19 19 19 19 19 19 19 19 19 18 19 19 19 19 19 19 19 19 19 19
24 23 23 22 21 21 21 20 20 20 20 20 20 19 19 19 19 19 18 18 18 18 18 18 18 18 18 18 18 18 18 19 18 18 18 18 18 18 18 19 19 19 19
24 24 23 22 21 21 21 20 20 20 20 20 19 19 19 19 18 18 18 18 18 18 18 18 18 18 18 18 18 18 18 18 18 18 18 18 18 18 18 18 18 18 19
24 23 22 22 21 21 21 20 20 20 20 20 19 19 19 19 18 18 18 18 18 18 17 17 17 17 17 18 18 18 18 18 18 18 18 18 18 18 18 18 18 18 18
23 22 22 22 21 21 20 20 20 20 20 20 20 19 19 19 18 18 17 17 17 17 17 17 17 17 17 17 17 17 17 18 18 18 18 18 18 18 18 18 18 18 18
22 22 21 21 21 21 20 20 20 20 20 20 20 19 19 19 18 18 18 17 17 17 17 17 17 17 17 17 17 17 17 18 18 18 18 18 18 18 18 18 18 18 18
21 21 21 20 20 20 20 20 20 20 20 20 20 19 19 18 18 18 18 18 17 17 17 17 16 16 16 16 16 16 16 17 18 18 18 18 18 18 18 18 18 18 18
20 20 20 20 20 20 20 20 20 20 20 19 19 19 19 18 18 18 18 18 17 17 17 16 16 16 16 16 16 16 16 17 17 18 18 18 18 18 18 17 17 17 17
20 20 20 19 19 19 19 19 19 19 19 19 19 19 19 18 18 18 18 17 17 17 17 17 16 16 16 16 16 16 16 15 15 16 17 17 17 17 17 17 17 17 17
19 19 19 19 19 19 19 19 19 18 19 19 18 18 18 18 18 18 17 17 17 17 17 16 17 16 16 15 15 15 15 15 15 15 15 16 17 17 17 17 17 17 17
18 18 18 18 18 18 18 18 18 18 18 18 18 18 18 17 17 17 17 17 17 17 16 16 16 16 16 15 15 15 15 15 15 15 15 15 16 16 16 17 17 17 16
Wind_Speed
19 20 22 18 17 16 16 16 16 15 14 13 13 12 12 11 12 12 12 12 12 12 11 11 10 10 10 10 11 11 11 10 10 10 11 11 11 10 9 8 5 11 13
22 21 22 19 17 16 16 16 15 15 14 13 12 12 11 11 10 10 10 10 10 10 10 10 9 9 9 9 9 8 8 7 6 6 8 10 10 9 8 8 10 12 12
22 21 21 19 18 17 16 15 15 15 14 13 12 11 11 10 10 9 9 9 9 9 9 8 8 8 8 7 7 6 5 3 1 2 5 7 10 9 8 8 10 11 10
21 20 20 20 18 17 16 15 15 14 13 12 11 11 10 9 9 8 8 8 8 7 7 7 7 7 6 6 5 4 3 1 3 5 8 8 10 11 10 8 7 7 7
19 19 21 21 18 17 15 14 14 13 12 12 11 10 9 8 7 7 7 6 6 6 6 5 5 6 5 5 5 4 3 4 6 9 12 5 11 14 11 9 6 6 6
19 20 22 20 18 16 15 14 13 12 11 11 10 9 8 8 7 6 6 5 5 5 5 5 5 5 5 5 5 5 5 6 8 11 13 6 12 15 13 10 8 7 6
20 19 21 20 18 16 14 13 12 11 10 10 9 8 7 7 6 6 6 6 6 5 5 5 6 6 7 7 7 7 7 8 10 13 12 5 13 18 15 12 9 9 9
20 19 19 19 18 16 14 13 12 11 10 9 9 8 8 7 7 8 8 8 8 8 8 8 8 8 8 9 10 10 10 11 12 13 13 7 17 20 17 14 11 10 10
21 19 17 17 16 15 14 13 12 11 10 10 9 9 9 9 10 10 11 11 11 11 11 11 11 11 11 12 12 12 13 13 13 13 14 7 19 20 17 15 13 12 12
19 19 16 16 16 15 15 15 14 13 12 11 11 11 11 12 13 15 15 16 15 15 14 13 14 14 14 14 15 15 16 14 15 15 15 9 20 20 18 16 15 14 14
15 16 16 16 14 15 16 17 16 15 14 13 13 14 13 12 14 16 20 21 20 18 17 16 15 15 15 16 18 19 17 14 15 15 15 14 22 21 19 17 16 16 15
12 14 14 15 14 12 11 15 14 14 15 15 13 14 14 13 13 14 12 20 22 21 20 18 18 16 16 15 18 22 15 17 17 14 13 18 23 22 20 18 17 17 17
11 11 11 13 10 9 7 10 8 9 11 15 15 13 12 11 11 11 7 12 16 18 15 16 16 15 14 13 12 12 16 16 13 12 8 19 22 21 20 18 18 18 18
12 12 11 11 8 4 3 4 5 5 5 6 10 13 9 5 5 4 3 3 7 9 9 9 7 11 13 14 12 9 12 11 10 8 7 18 20 20 19 18 18 18 19
11 11 10 9 9 6 3 2 3 3 2 3 3 6 6 3 4 4 3 3 4 5 4 4 5 6 7 6 7 7 7 8 9 8 7 17 20 20 20 19 19 19 20
14 12 11 9 9 7 5 4 3 3 2 3 3 4 4 4 2 3 4 4 4 5 5 3 6 6 5 5 6 7 7 8 8 8 9 13 20 21 21 20 20 20 20
13 12 11 9 9 8 6 5 5 5 4 3 2 3 3 3 2 3 4 5 5 6 5 5 6 5 7 7 7 8 8 7 8 8 10 10 12 18 21 22 22 22 22
10 10 10 10 10 9 5 3 3 3 2 1 1 1 1 2 3 2 4 5 4 5 4 5 6 6 6 6 6 7 8 7 10 8 9 10 11 12 16 22 23 23 23
8 10 8 5 8 7 6 4 3 3 2 2 1 1 2 2 3 2 3 4 4 4 4 6 5 4 6 6 7 8 9 9 9 11 10 9 11 13 13 17 22 24 23
8 8 8 6 6 6 5 4 2 2 2 1 1 3 2 2 2 2 4 3 4 4 4 4 5 5 5 6 9 9 7 8 8 9 11 10 9 12 15 15 14 18 23
8 8 7 6 5 2 2 3 3 3 2 1 2 4 2 1 3 2 4 4 4 4 4 5 5 6 6 5 5 7 8 10 10 9 10 9 10 10 10 11 11 11 12
7 6 7 6 4 2 2 1 1 1 2 2 1 4 3 1 1 3 3 4 4 4 6 5 4 5 6 5 4 5 5 6 7 9 8 9 10 8 9 11 10 9 9
6 5 5 5 4 1 1 0 0 1 2 2 1 2 3 1 2 2 3 4 4 5 5 5 5 6 6 5 5 4 4 4 5 4 6 7 6 7 7 7 8 7 10
7 6 7 5 3 1 0 1 2 2 2 3 2 1 2 2 3 3 4 4 4 4 6 6 4 5 6 7 5 5 6 6 5 5 5 5 6 6 7 8 7 5 8
9 8 7 5 4 3 3 3 4 4 4 4 4 3 2 4 5 6 5 4 4 5 5 5 6 6 6 7 6 6 7 6 7 7 8 6 4 4 5 5 5 4 3
11 10 9 6 4 4 5 5 5 6 6 7 7 6 5 5 5 5 5 4 4 5 5 5 6 7 7 7 7 7 7 6 6 6 8 8 6 5 5 3 3 2 1
Wind_Direction
126 134 135 135 135 134 135 136 135 132 129 124 120 116 112 107 103 99 96 96 95 96 98 95 90 87 84 81 78 75 75 76 81 88 94 94 91 89 84 77 91 107 107
127 135 136 137 138 138 138 138 138 137 133 129 126 123 119 115 111 107 105 103 102 100 100 99 96 93 92 91 90 88 86 87 94 107 119 118 110 100 85 61 60 110 113
126 135 138 139 140 140 140 141 141 141 139 135 133 130 127 124 120 117 113 111 110 109 108 108 106 104 103 102 102 102 103 106 126 166 195 166 132 121 104 85 88 106 115
129 140 142 142 143 143 143 144 145 145 145 143 141 139 137 133 130 127 124 121 119 119 119 120 119 118 119 120 122 124 134 207 263 265 244 217 153 135 127 113 110 117 125
134 141 140 147 147 147 147 148 149 150 150 149 148 148 147 146 145 142 139 138 137 137 137 138 138 139 143 146 152 164 193 247 272 273 270 224 138 145 143 139 141 146 151
138 139 144 150 150 151 152 154 155 156 156 157 157 159 161 163 165 166 166 167 168 167 168 169 170 171 174 179 188 200 219 245 269 266 260 222 145 154 153 156 167 178 183
140 137 147 152 154 156 158 160 162 164 166 167 170 174 179 185 190 195 197 198 201 203 204 205 204 203 202 204 209 217 228 243 257 274 280 238 152 158 161 165 177 194 202
135 136 146 153 157 160 164 168 171 174 176 179 184 191 199 207 214 220 221 221 221 223 226 227 226 224 222 220 221 224 230 243 250 255 258 225 161 164 169 173 184 200 211
134 135 148 155 161 166 171 176 179 183 187 192 198 205 212 221 228 231 233 232 232 232 233 234 233 232 231 230 229 230 232 238 258 271 269 227 169 170 173 178 190 205 215
133 140 153 158 164 171 177 183 186 190 195 202 209 216 222 229 234 235 235 231 232 232 233 235 236 236 236 235 234 233 234 238 245 253 256 228 173 175 179 184 194 207 217
139 144 156 158 167 178 182 182 187 194 201 207 215 222 227 235 238 233 231 229 227 228 229 232 235 239 240 240 238 235 234 236 240 240 239 209 177 180 184 190 199 209 217
149 153 160 157 169 184 190 167 186 195 198 207 216 212 215 230 246 254 231 218 221 224 226 230 234 238 240 244 239 230 230 233 244 246 234 190 181 185 189 194 203 212 219
160 165 164 153 170 181 179 165 190 198 187 199 215 213 212 224 237 246 231 210 214 220 225 230 230 233 235 236 243 219 218 233 235 242 222 180 183 188 194 199 206 214 221
175 175 167 153 161 189 190 180 184 203 188 199 200 208 218 213 239 262 265 236 207 214 215 229 223 223 231 240 238 227 220 230 243 239 202 182 186 192 199 205 212 218 222
176 176 161 156 158 172 197 263 221 225 225 215 200 207 222 228 238 254 266 280 277 268 235 231 249 244 244 256 257 253 245 243 250 246 218 193 194 200 205 210 217 221 224
175 176 162 165 155 161 177 204 273 274 239 255 242 235 230 239 261 304 292 283 273 274 282 278 277 271 261 261 266 268 264 263 260 256 245 218 209 208 210 214 219 222 224
172 164 154 164 160 165 189 201 224 238 241 233 231 241 246 260 265 265 274 274 269 281 284 277 273 274 269 264 261 262 263 256 256 252 252 250 229 218 217 219 221 223 224
157 146 156 172 164 163 169 187 252 260 282 271 263 276 286 299 291 274 270 270 276 273 263 260 255 258 261 262 262 261 259 254 253 251 250 245 241 239 228 224 224 225 226
138 136 143 142 144 150 159 178 228 249 268 278 279 77 50 354 321 305 285 281 274 267 266 273 273 258 263 261 260 255 251 249 248 250 247 243 237 234 236 231 223 224 226
118 122 125 124 122 137 156 177 196 223 237 221 145 98 62 343 338 341 296 309 313 295 285 284 291 281 267 261 266 269 261 252 243 239 242 244 238 235 235 239 227 225 226
117 114 114 121 117 135 165 189 182 172 210 194 155 113 92 349 354 327 307 327 311 303 311 303 299 296 287 273 271 274 263 253 245 236 233 236 241 240 235 232 229 225 222
106 120 123 122 129 151 147 186 136 115 235 201 134 140 157 145 342 303 355 330 326 325 299 291 299 292 293 294 284 290 282 264 247 248 236 233 236 236 236 237 228 223 221
106 113 116 111 114 123 122 271 179 194 253 250 193 168 151 151 264 282 303 299 313 305 308 328 307 299 298 297 274 263 278 284 318 281 263 247 239 236 237 242 233 219 219
71 74 76 80 86 59 312 340 315 286 295 312 300 275 143 217 235 239 250 264 285 295 298 299 330 324 304 295 286 263 256 273 283 296 290 275 261 249 242 246 245 223 216
51 51 54 69 52 22 360 342 317 311 316 321 330 317 306 265 236 226 223 226 251 268 281 296 300 292 290 288 294 295 287 276 253 258 279 281 275 265 253 241 241 238 202
44 39 35 37 30 18 6 352 344 329 322 316 314 308 294 274 251 230 222 208 235 260 280 287 283 280 276 282 284 282 280 277 272 261 265 275 272 263 261 257 244 231 198
Height
1502 1503 1507 1510 1512 1514 1517 1519 1521 1523 1525 1527 1528 1530 1531 1532 1534 1535 1536 1538 1539 1540 1541 1542 1543 1544 1545 1546 1547 1548 1549 1550 1551 1551 1552 1552 1552 1552 1553 1553 1554 1555 1556
1500 1504 1507 1510 1512 1515 1518 1520 1523 1525 1527 1528 1530 1532 1533 1534 1536 1537 1538 1539 1541 1542 1543 1544 1545 1546 1547 1548 1549 1550 1551 1552 1552 1553 1553 1554 1554 1555 1555 1555 1555 1557 1558
1500 1504 1508 1511 1513 1516 1519 1521 1524 1526 1528 1530 1531 1533 1534 1536 1537 1538 1540 1541 1542 1543 1544 1545 1546 1547 1548 1549 1550 1551 1552 1553 1553 1554 1554 1555 1556 1556 1557 1557 1557 1558 1559
1501 1505 1508 1511 1514 1517 1519 1522 1524 1527 1529 1531 1533 1534 1536 1537 1538 1540 1541 1542 1543 1544 1545 1546 1547 1548 1548 1549 1550 1551 1552 1553 1554 1555 1555 1556 1557 1558 1558 1558 1558 1559 1560
1503 1506 1509 1512 1514 1517 1520 1523 1525 1527 1530 1531 1533 1535 1537 1538 1539 1541 1542 1543 1544 1544 1545 1546 1547 1548 1548 1549 1550 1551 1552 1553 1554 1555 1555 1557 1558 1559 1559 1559 1559 1560 1560
1504 1506 1510 1512 1515 1518 1520 1523 1525 1528 1530 1532 1534 1535 1537 1538 1540 1541 1542 1543 1544 1544 1545 1546 1547 1547 1548 1549 1549 1550 1551 1552 1553 1554 1555 1557 1558 1558 1559 1559 1559 1560 1560
1506 1507 1510 1513 1515 1518 1521 1523 1525 1528 1530 1532 1534 1535 1537 1538 1539 1540 1541 1542 1543 1544 1545 1545 1546 1546 1547 1547 1548 1549 1550 1551 1552 1553 1554 1556 1556 1557 1557 1558 1559 1559 1560
1507 1508 1511 1513 1516 1518 1521 1523 1525 1527 1529 1531 1533 1534 1536 1537 1538 1539 1540 1541 1542 1543 1543 1544 1544 1545 1545 1546 1546 1547 1548 1549 1550 1551 1553 1554 1554 1555 1556 1556 1557 1558 1558
1507 1508 1511 1513 1516 1518 1520 1523 1525 1527 1529 1531 1532 1534 1535 1536 1537 1538 1539 1540 1540 1541 1541 1542 1542 1543 1543 1544 1544 1545 1546 1546 1547 1548 1550 1552 1552 1552 1553 1554 1555 1555 1556
1508 1508 1511 1513 1516 1518 1520 1522 1525 1526 1528 1530 1531 1532 1534 1535 1535 1536 1537 1538 1538 1539 1539 1540 1540 1540 1541 1541 1542 1542 1543 1544 1544 1545 1546 1548 1549 1550 1551 1551 1552 1552 1553
1509 1509 1511 1512 1515 1517 1519 1521 1524 1526 1527 1528 1530 1531 1532 1533 1533 1534 1535 1536 1536 1537 1537 1537 1538 1538 1538 1538 1539 1540 1540 1540 1541 1542 1543 1545 1546 1546 1547 1548 1548 1549 1550
1508 1510 1512 1512 1515 1517 1520 1521 1523 1524 1525 1527 1528 1529 1530 1531 1532 1533 1533 1533 1534 1534 1534 1534 1535 1535 1535 1535 1536 1537 1537 1538 1538 1539 1541 1541 1542 1543 1544 1544 1545 1545 1546
1507 1509 1512 1513 1515 1518 1520 1521 1522 1524 1524 1525 1526 1527 1528 1529 1530 1531 1532 1531 1531 1531 1531 1531 1531 1532 1532 1532 1533 1534 1534 1535 1536 1537 1538 1538 1538 1539 1540 1540 1541 1542 1543
1505 1508 1510 1512 1513 1516 1519 1521 1522 1523 1524 1525 1525 1526 1527 1527 1528 1529 1529 1530 1530 1529 1529 1529 1528 1528 1529 1530 1530 1531 1532 1532 1533 1534 1534 1534 1534 1535 1536 1537 1537 1538 1539
1503 1506 1508 1510 1511 1513 1516 1518 1520 1521 1523 1524 1524 1525 1525 1525 1525 1526 1526 1526 1527 1527 1527 1526 1526 1526 1527 1527 1528 1528 1528 1529 1529 1530 1530 1530 1530 1530 1531 1532 1533 1533 1535
1500 1503 1506 1508 1509 1511 1513 1515 1516 1518 1520 1521 1521 1522 1522 1522 1522 1522 1522 1522 1522 1523 1523 1523 1522 1522 1523 1523 1523 1523 1523 1524 1524 1525 1525 1525 1526 1526 1527 1527 1528 1529 1530
1498 1501 1503 1505 1507 1509 1511 1512 1514 1516 1517 1518 1518 1518 1519 1519 1518 1518 1518 1518 1518 1518 1518 1518 1518 1518 1518 1518 1518 1518 1518 1518 1518 1519 1520 1520 1520 1520 1521 1522 1523 1524 1525
1495 1497 1500 1503 1505 1507 1509 1510 1512 1513 1514 1515 1516 1515 1515 1515 1515 1514 1514 1514 1514 1514 1513 1513 1513 1513 1513 1513 1512 1512 1512 1512 1512 1513 1513 1514 1514 1515 1515 1516 1517 1518 1519
1493 1495 1497 1501 1503 1504 1506 1507 1509 1511 1512 1512 1513 1513 1512 1512 1512 1511 1511 1511 1511 1510 1510 1510 1509 1508 1508 1508 1507 1507 1506 1506 1506 1506 1506 1507 1508 1508 1509 1510 1511 1512 1513
1490 1492 1493 1497 1500 1502 1504 1505 1506 1508 1510 1510 1510 1510 1510 1509 1509 1508 1508 1508 1507 1507 1506 1506 1505 1505 1504 1503 1503 1502 1501 1500 1500 1499 1500 1500 1501 1501 1502 1503 1504 1505 1506
1488 1490 1492 1494 1497 1500 1502 1502 1503 1505 1507 1509 1509 1508 1508 1507 1507 1506 1505 1505 1504 1504 1503 1502 1501 1501 1500 1500 1499 1497 1496 1495 1494 1493 1494 1494 1494 1495 1496 1496 1498 1499 1500
1487 1488 1490 1494 1496 1499 1500 1501 1502 1503 1505 1507 1507 1506 1505 1505 1505 1504 1503 1502 1501 1501 1500 1499 1498 1497 1496 1496 1496 1494 1492 1491 1489 1489 1488 1488 1489 1489 1490 1491 1492 1493 1494
1487 1487 1490 1493 1496 1498 1499 1499 1501 1502 1504 1505 1504 1504 1503 1503 1502 1501 1500 1499 1499 1498 1497 1496 1495 1494 1493 1492 1492 1492 1490 1487 1486 1484 1484 1484 1484 1484 1485 1486 1487 1487 1489
1486 1487 1492 1494 1495 1497 1498 1498 1500 1500 1501 1502 1501 1502 1501 1500 1499 1498 1497 1496 1495 1495 1494 1493 1492 1491 1490 1488 1488 1488 1487 1486 1484 1481 1480 1480 1480 1479 1480 1481 1482 1483 1483
1487 1489 1491 1491 1494 1495 1497 1497 1498 1498 1498 1499 1498 1498 1497 1497 1496 1495 1494 1493 1492 1491 1490 1489 1488 1487 1485 1484 1483 1482 1482 1481 1480 1479 1476 1476 1476 1475 1475 1476 1477 1478 1478
1489 1490 1491 1491 1492 1494 1494 1494 1494 1494 1494 1494 1494 1494 1494 1494 1493 1492 1491 1489 1488 1487 1486 1485 1484 1482 1481 1480 1478 1477 1477 1476 1475 1474 1472 1471 1471 1471 1471 1471 1472 1473 1474